West Paducah, KY

8:26 PM CST on December 10, 2016 (GMT -0600)
Barkley Regional

Weather History for KPAH - July, 2014

Change the Weather History Date:

Saturday, July 26, 2014

  Actual Average Record
Temperature  
Mean Temperature 80 °F 79 °F  
Max Temperature 93 °F 89 °F 102 °F (1952)
Min Temperature 67 °F 68 °F 55 °F (1948)
Degree Days  
Heating Degree Days 0 0  
Month to date heating degree days 0 0  
Since 1 June heating degree days 0 4  
Since 1 July heating degree days 0 0  
Cooling Degree Days 15 14  
Month to date cooling degree days 271 364  
Year to date cooling degree days 954 856  
Since 1 June cooling degree days 676 684  
Growing Degree Days 30 (Base 50)    
Moisture  
Dew Point 70 °F    
Average Humidity 72    
Maximum Humidity 87    
Minimum Humidity 56    
Precipitation  
Precipitation 0.00 in 0.14 in 2.94 in (2001)
Month to date precipitation 2.04 3.80  
Year to date precipitation 28.92 29.08  
Snow  
Snow 0.00 in 0.00 in 0.00 in (2002)
Month to date snowfall 0.0 0.0  
Since 1 June snowfall 0.0 0.0  
Since 1 July snowfall 0.0 0.0  
Snow Depth 0.00 in    
Sea Level Pressure  
Sea Level Pressure 29.93 in    
Wind  
Wind Speed 8 mph (SSW)    
Max Wind Speed 16 mph    
Max Gust Speed 22 mph    
Visibility 9 miles    
Events      
T = Trace of Precipitation, MM = Missing Value Source: NWS Daily Summary

Daily Weather History Graph

Daily Weather History Graph

Search for Another Location

Airport or City:

Trip Planner

Search our weather history database for the weather conditions in past years. The results will help you decide how hot, cold, wet, or windy it might be!

Date:

Astronomy

Jul. 26, 2014 Rise Set
Actual Time 5:55 AM CDT 8:07 PM CDT
Civil Twilight 5:26 AM CDT 8:36 PM CDT
Nautical Twilight 4:50 AM CDT 9:12 PM CDT
Astronomical Twilight 4:11 AM CDT 9:51 PM CDT
Moon 5:46 AM CDT (7/26) 7:44 PM CDT (7/26)
Length of Visible Light 15h 10m
Length of Day
14h 12m
Waning Crescent, 0% of the Moon is Illuminated
Jul 26
Waning Crescent
Jul 26
New
Aug 3
First Quarter
Aug 10
Full
Aug 17
Last Quarter

Hourly Weather History & Observations

Time (CDT) Temp. Heat Index Dew Point Humidity Pressure Visibility Wind Dir Wind Speed Gust Speed Precip Events Conditions
12:53 AM 68.0 °F - 63.0 °F 84% 29.98 in 10.0 mi Calm Calm - N/A   Clear
1:53 AM 66.9 °F - 63.0 °F 87% 29.97 in 8.0 mi SSE 3.5 mph - N/A   Clear
2:53 AM 69.1 °F - 64.0 °F 84% 29.95 in 9.0 mi South 5.8 mph - N/A   Clear
3:53 AM 68.0 °F - 64.0 °F 87% 29.94 in 8.0 mi South 6.9 mph - N/A   Clear
4:53 AM 68.0 °F - 63.0 °F 84% 29.94 in 9.0 mi South 4.6 mph - N/A   Clear
5:53 AM 66.9 °F - 63.0 °F 87% 29.95 in 8.0 mi Calm Calm - N/A   Clear
6:53 AM 70.0 °F - 64.0 °F 81% 29.97 in 8.0 mi Calm Calm - N/A   Mostly Cloudy
7:49 AM 73.4 °F - 66.2 °F 78% 29.99 in 9.0 mi SSW 6.9 mph - N/A   Scattered Clouds
7:53 AM 73.0 °F - 66.0 °F 79% 29.98 in 10.0 mi SW 6.9 mph - N/A   Partly Cloudy
8:53 AM 78.1 °F - 68.0 °F 71% 29.97 in 10.0 mi SSW 12.7 mph 18.4 mph N/A   Clear
10:53 AM 84.9 °F 91.4 °F 73.0 °F 67% 29.96 in 10.0 mi SSW 10.4 mph - N/A   Clear
1:53 PM 91.0 °F 102.9 °F 75.9 °F 61% 29.91 in 10.0 mi SW 11.5 mph - N/A   Clear
2:53 PM 93.0 °F 105.3 °F 75.9 °F 57% 29.90 in 10.0 mi WSW 16.1 mph 20.7 mph N/A   Clear
3:53 PM 93.0 °F 105.3 °F 75.9 °F 57% 29.89 in 10.0 mi SW 12.7 mph - N/A   Clear
4:53 PM 91.0 °F 102.9 °F 75.9 °F 61% 29.86 in 9.0 mi SW 12.7 mph 18.4 mph N/A   Clear
5:53 PM 89.1 °F 100.2 °F 75.9 °F 65% 29.87 in 9.0 mi SW 11.5 mph - N/A   Clear
6:53 PM 88.0 °F 98.5 °F 75.9 °F 67% 29.88 in 9.0 mi Variable 6.9 mph - N/A   Clear
7:53 PM 87.1 °F 97.3 °F 75.9 °F 69% 29.88 in 9.0 mi SSW 5.8 mph - N/A   Clear
8:53 PM 86.0 °F 96.0 °F 75.9 °F 72% 29.89 in 10.0 mi SSW 6.9 mph - N/A   Clear
9:53 PM 84.9 °F 93.3 °F 75.0 °F 72% 29.91 in 10.0 mi SSW 6.9 mph - N/A   Clear
10:53 PM 84.9 °F 93.3 °F 75.0 °F 72% 29.88 in 10.0 mi South 8.1 mph 17.3 mph N/A   Clear
11:53 PM 84.9 °F 93.3 °F 75.0 °F 72% 29.87 in 9.0 mi SSW 10.4 mph - N/A   Clear